Location: Saint Thomas
(35.4420°N, 90.1429°W)
Time: 11:24:42
(UTC+00:00)

Hubble Space Telescope - Visible Passes

Search period start: 04 October 2024 00:00
Search period end: 14 October 2024 00:00
Orbit: 504 x 508 km, 28.5° (Epoch: 03 October)

Date Brightness Start Highest point End Pass type
(mag) Time Alt. Az. Time Alt. Az. Time Alt. Az.
04 Oct 2.2 10:11:40 25° SSE 10:11:40 25° SSE 10:14:15 10° SE visible
05 Oct 3.0 09:51:48 16° SE 09:51:48 16° SE 09:52:58 10° SE visible
05 Oct 2.9 11:27:47 10° SW 11:29:33 13° SSW 11:31:20 10° S visible
06 Oct 2.9 11:06:53 10° SW 11:08:16 12° SSW 11:09:39 10° S visible
07 Oct 3.0 10:46:48 10° SSW 10:46:56 10° SSW 10:47:42 10° S visible
